Search your local weather  

 

Hazardous Weather Conditions

No active alerts for HOUSTON, TEXAS

Current Conditions: HOUSTON, TEXAS

Overcast


70.0 F

Last Updated on Feb 26 2021, 3:53 am CST
Humidity: 87%
Wind Speed: S 6.9 mph
Barometer 29.92 in
Dewpoint: 66.0 F
Visibility: 10.00 mi
Precip: --
Heat Index: NA
Wind Chill: NA
Current conditions at:

Houston Intercontinental Airport, TX (KIAH)

Lat: 29.9844 Lon: -95.36074

Local Radar Image active severe weather and emergency alerts image image weather storm and storm spotter reports image weather observation monitoring service image
Local
Radar
Active
Alerts
Storm Reports Weather
Monitoring

Sign-up For Email & Text Message Weather Alert Notification Services



Advertise Here

Observation History for HOUSTON, TEXAS


Time Wind
(mph)
Vis
(mi)
Weather Precip (in) Temperature (F) Relative
Humidity
Wind
Chill
(F)
Heat
Index
(F)
Pressure
Air Dwpt altimeter
(in)
sea level
(mb)
3:53 am CST S 6.9 10.00 Overcast -- 70.0 66.0 87% NA NA 29.92 1013.2
2:53 am CST S 5.8 10.00 Overcast -- 70.0 66.0 87% NA NA 29.93 1013.4
1:53 am CST 3.5 7.00 Mostly Cloudy -- 69.0 66.0 90% NA NA 29.96 1014.3
12:53 am CST S 12.7 7.00 Overcast Trace 68.0 64.9 90% NA NA 29.94 1013.9
11:53 pm CST S 9.2 7.00 Overcast -- 68.0 64.9 90% NA NA 30.00 1015.7
10:53 pm CST S 8.1 7.00 Overcast -- 69.0 64.9 87% NA NA 30.02 1016.4
9:53 pm CST S 12.7 7.00 Overcast -- 69.0 64.9 87% NA NA 30.03 1016.7
8:53 pm CST S 10.4 7.00 Mostly Cloudy -- 69.0 64.0 84% NA NA 30.03 1016.8
7:53 pm CST SE 6.9 7.00 Mostly Cloudy -- 68.0 64.9 90% NA NA 30.02 1016.4
6:53 pm CST SE 10.4 7.00 Mostly Cloudy -- 68.0 64.9 90% NA NA 30.02 1016.4
5:53 pm CST SE 9.2 5.00 Fog/Mist -- 68.0 66.0 93% NA NA 30.01 1016.3
4:53 pm CST SE 10.4 4.00 Fog/Mist -- 68.0 66.0 93% NA NA 30.03 1016.8
3:53 pm CST SE 9.2 4.00 Fog/Mist 00.01 67.0 64.9 93% NA NA 30.05 1017.6
2:53 pm CST SE 12.7 2.00 Light Rain Fog/Mist -- 67.0 64.9 93% NA NA 30.06 1017.9
1:53 pm CST SE 10.4 7.00 Light Rain Trace 68.0 64.9 90% NA NA 30.08 1018.5
12:53 pm CST SE 12.7 7.00 Light Rain Trace 69.0 64.9 87% NA NA 30.10 1019.3
11:53 am CST SE 12.7 7.00 Overcast -- 74.0 63.0 69% NA NA 30.13 1020.3
10:53 am CST S 8.1 10.00 Overcast -- 73.0 63.0 71% NA NA 30.15 1020.8
9:53 am CST S 6.9 10.00 Overcast -- 72.0 64.0 76% NA NA 30.14 1020.7
8:53 am CST SE 9.2 10.00 Overcast -- 70.0 64.9 84% NA NA 30.13 1020.4
7:53 am CST S 6.9 7.00 Overcast -- 68.0 64.9 90% NA NA 30.12 1020.0
6:53 am CST S 5.8 7.00 Mostly Cloudy -- 68.0 64.9 90% NA NA 30.10 1019.2
5:53 am CST S 3.5 6.00 Fog/Mist -- 68.0 66.0 93% NA NA 30.09 1018.8
4:53 am CST S 4.6 7.00 Overcast Trace 68.0 66.0 93% NA NA 30.07 1018.3

Regional Weather Observation

Houston, Hooks Memorial Airport, TX (KDWH)

Light Rain Fog/Mist
69.0 F

Houston Executive Airport, TX (KTME)

Fog/Mist
68.0 F

John Dunn Helistop, TX (KMCJ)

Fog/Mist
68.0 F

Houston, Sugar Land Municipal / Hull Field Airport, TX (KSGR)

Overcast
70.0 F

Houston, Houston Hobby Airport, TX (KHOU)

Overcast
69.0 F

Conroe, Montgomery County Airport, TX (KCXO)

Overcast
68.0 F

Advertise Here


Advertise Here